User: anonymous   Login
Location: Unspecified
(0.0000°N, 0.0000°E)
Time: 06:20:14
(UTC+01:00)
Language:

H-2A R/B - Orbit

View from above orbital plane
View from above orbital plane
View from above satellite
View from above satellite

Ground track
Ground track

The orbit data is extracted from the following two-line orbital elements,

1 26899U 01038B   15057.86897229  .00002285  00000-0  71013-3 0  9997
2 26899 028.3179 045.3467 7147784 353.5858 046.5761 02.44468758115756
Epoch (UTC): 26 February 2015 20:51:19
Eccentricity: 0.7147784
inclination: 28.3179°
perigee height: 261 km
apogee height: 33536 km
right ascension of ascending node: 45.3467°
argument of perigee: 353.5858°
revolutions per day: 2.44468758
mean anomaly at epoch: 46.5761°
orbit number at epoch: 11575

The dashed part of the orbit path shows where the satellite is in the earth's shadow,  

DLR